TimeCDT,TemperatureF,Dew PointF,Humidity,Sea Level PressureIn,VisibilityMPH,Wind Direction,Wind SpeedMPH,Gust SpeedMPH,PrecipitationIn,Events,Conditions,WindDirDegrees,DateUTC
12:53 AM,72.0,66.9,84,30.04,10.0,Calm,Calm,-,N/A,,Clear,0,2013-05-24 05:53:00
1:53 AM,71.1,66.9,87,30.04,10.0,NNW,3.5,-,N/A,,Clear,340,2013-05-24 06:53:00
2:53 AM,71.1,66.9,87,30.05,10.0,NNW,4.6,-,N/A,,Clear,340,2013-05-24 07:53:00
3:53 AM,71.1,66.9,87,30.05,10.0,Calm,Calm,-,N/A,,Clear,0,2013-05-24 08:53:00
4:53 AM,71.1,66.9,87,30.06,10.0,Calm,Calm,-,N/A,,Clear,0,2013-05-24 09:53:00
5:53 AM,69.1,66.0,90,30.08,10.0,NNW,3.5,-,N/A,,Clear,340,2013-05-24 10:53:00
6:53 AM,72.0,68.0,87,30.10,9.0,North,4.6,-,N/A,,Clear,360,2013-05-24 11:53:00
7:53 AM,75.0,66.9,76,30.13,10.0,Variable,3.5,-,N/A,,Mostly Cloudy,0,2013-05-24 12:53:00
8:53 AM,77.0,64.9,66,30.15,10.0,Variable,6.9,-,N/A,,Partly Cloudy,0,2013-05-24 13:53:00
9:53 AM,79.0,66.0,64,30.15,10.0,East,8.1,-,N/A,,Clear,80,2013-05-24 14:53:00
10:53 AM,81.0,66.0,60,30.16,10.0,NE,6.9,-,N/A,,Clear,50,2013-05-24 15:53:00
11:53 AM,82.0,64.9,56,30.17,10.0,Variable,5.8,-,N/A,,Clear,0,2013-05-24 16:53:00
12:53 PM,84.0,66.0,55,30.17,10.0,Variable,4.6,-,N/A,,Clear,0,2013-05-24 17:53:00
1:53 PM,84.0,66.0,55,30.17,10.0,ENE,4.6,-,N/A,,Overcast,70,2013-05-24 18:53:00
2:53 PM,84.0,66.0,55,30.16,10.0,NE,5.8,-,N/A,,Mostly Cloudy,40,2013-05-24 19:53:00
3:53 PM,84.0,64.9,53,30.14,10.0,NNE,6.9,-,N/A,,Mostly Cloudy,20,2013-05-24 20:53:00
4:53 PM,84.9,66.0,53,30.12,10.0,NNE,5.8,-,N/A,,Scattered Clouds,20,2013-05-24 21:53:00
5:53 PM,84.0,66.0,55,30.11,10.0,ENE,6.9,-,N/A,,Partly Cloudy,70,2013-05-24 22:53:00
6:53 PM,82.0,66.0,58,30.11,10.0,NE,5.8,-,N/A,,Clear,40,2013-05-24 23:53:00
7:53 PM,79.0,66.0,64,30.13,10.0,Calm,Calm,-,N/A,,Clear,0,2013-05-25 00:53:00
8:53 PM,77.0,64.9,66,30.14,10.0,NNE,3.5,-,N/A,,Clear,30,2013-05-25 01:53:00
9:53 PM,75.0,64.9,71,30.15,10.0,North,3.5,-,N/A,,Clear,10,2013-05-25 02:53:00
10:53 PM,73.9,64.0,71,30.16,10.0,NE,4.6,-,N/A,,Clear,40,2013-05-25 03:53:00
11:53 PM,72.0,62.1,71,30.16,10.0,Variable,3.5,-,N/A,,Clear,0,2013-05-25 04:53:00